Simultaneous Nadir Overpasses (SNOs) Predictions

Prediction of SNOs between GOES-14 and AQUA Satellite Orbit:

Table of predicted SNOs for the next 14.0 days since TLE Epoch: 11/19/2022
Index Date Time (GOES-14) GOES-14 Lat,Lon AQUA Lat,Lon Distance(km) Time Diff (sec)
1 11/19/2022 20:28:03 -0.02,-104.07 0.57,-101.23 322.93 80
2 11/20/2022 08:49:09 -0.01,-104.36 0.41,-106.36 227.50 80
3 11/22/2022 08:33:35 0.00,-104.35 -0.25,-103.21 129.06 80
4 11/22/2022 20:54:47 0.02,-104.04 -0.93,-108.34 489.56 80
5 11/24/2022 08:20:40 0.01,-104.33 -0.87,-100.06 485.34 80
6 11/24/2022 20:41:53 0.01,-104.04 -0.24,-105.20 132.60 80
7 11/26/2022 20:31:38 0.00,-104.02 0.41,-102.05 223.77 80
8 11/27/2022 08:52:44 -0.03,-104.34 0.56,-107.18 322.74 80
9 11/29/2022 08:37:09 -0.02,-104.32 -0.11,-104.04 33.35 80
10 12/01/2022 08:24:13 -0.02,-104.31 -0.73,-100.88 389.92 80
11 12/01/2022 20:45:25 0.04,-103.98 -0.42,-106.01 231.66 80
